[[[{"header":{"parameterUnit":"kt","parameterCategory":2,"dx":1,"dy":1,"la1":30.253999710083008,"la2":30.299108505249023,"lo1":-89.0895004272461,"lo2":-89.04439544677734,"nx":28,"ny":28,"refTime":"2022-10-27T21:00:00:Z","depth":0,"parameterNumber":1,"parameterNumberName":"U-component_of_WINDS"},"data":[-0.5542,-0.5505,-0.5467,-0.5408,-0.5363,-0.5316,-0.5286,-0.5244,-0.52,-0.5139,-0.5097,-0.5053,-0.4993,-0.4933,-0.4885,-0.4866,-0.4849,-0.4867,-0.4842,-0.4799,-0.479,-0.4782,-0.4789,-0.4863,-0.4863,-0.4893,-0.4893,-0.4893,-0.5521,-0.5477,-0.5433,-0.5364,-0.5327,-0.5288,-0.523,-0.5201,-0.5159,-0.5104,-0.5059,-0.5001,-0.495,-0.4881,-0.4825,-0.4807,-0.4785,-0.4795,-0.4796,-0.4788,-0.474,-0.4748,-0.4814,-0.4814,-0.4814,-0.4814,-0.4814,-0.4814,-0.5474,-0.5453,-0.5388,-0.534,-0.5294,-0.5248,-0.522,-0.5166,-0.5122,-0.5057,-0.5017,-0.4968,-0.4904,-0.4813,-0.4772,-0.4733,-0.4714,-0.4712,-0.4711,-0.4713,-0.4721,-0.4691,-0.4721,-0.472,-0.472,-0.472,-0.4719,0,-0.5428,-0.5396,-0.535,-0.5293,-0.5255,-0.5206,-0.5153,-0.5135,-0.5051,-0.5017,-0.4966,-0.4928,-0.4855,-0.4801,-0.4737,-0.4693,-0.4647,-0.4636,-0.4635,-0.4656,-0.4685,-0.4673,-0.46,-0.4635,-0.4634,-0.4634,-0.4633,-0.4633,-0.5379,-0.5357,-0.5268,-0.5241,-0.5202,-0.5158,-0.5124,-0.5051,-0.5018,-0.4942,-0.4926,-0.487,-0.4821,-0.4743,-0.4676,-0.462,-0.4597,-0.4616,-0.4588,-0.4611,-0.46,-0.4603,-0.4602,-0.4623,-0.4625,-0.4626,-0.4626,0,-0.5357,-0.5289,-0.5241,-0.5153,-0.513,-0.5111,-0.5035,-0.5009,-0.4956,-0.4914,-0.49,-0.4817,-0.4766,-0.4694,-0.462,-0.4585,-0.4555,-0.4532,-0.4579,-0.4571,-0.4583,-0.4584,-0.4627,-0.463,-0.455,-0.4551,-0.4551,0,-0.5289,-0.5262,-0.5163,-0.5139,-0.5107,-0.5033,-0.5003,-0.4955,-0.4896,-0.4861,-0.4796,-0.4765,-0.4678,-0.4636,-0.4583,-0.4546,-0.4531,-0.4502,-0.4489,-0.4509,-0.4513,-0.449,-0.4487,-0.4455,-0.4455,-0.4455,-0.4454,0,-0.5262,-0.5175,-0.5134,-0.5103,-0.5004,-0.4987,-0.4944,-0.4876,-0.4842,-0.4785,-0.4763,-0.4702,-0.4669,-0.4624,-0.4557,-0.4541,-0.4508,-0.4471,-0.4478,-0.448,-0.4475,-0.4476,-0.4532,-0.4454,-0.4454,-0.4454,-0.4454,0,-0.5196,-0.5141,-0.5092,-0.5008,-0.4988,-0.496,-0.4896,-0.4855,-0.4787,-0.4752,-0.4707,-0.4654,-0.4612,-0.4583,-0.4525,-0.4524,-0.4496,-0.4463,-0.4462,-0.4455,-0.4424,-0.4468,-0.4526,-0.4531,-0.4449,-0.4449,-0.4449,0,-0.5186,-0.5116,-0.505,-0.5004,-0.4962,-0.4892,-0.4859,-0.48,-0.475,-0.4707,-0.4651,-0.4601,-0.4563,-0.4537,-0.4518,-0.4458,-0.4459,-0.4455,-0.4396,-0.4395,-0.4419,-0.4472,-0.4499,-0.4521,-0.4447,-0.4447,-0.4447,0,-0.5168,-0.5045,-0.5041,-0.5003,-0.4911,-0.4874,-0.4836,-0.477,-0.4745,-0.4683,-0.4651,-0.4577,-0.4546,-0.4503,-0.4452,-0.4436,-0.4456,-0.4404,-0.4401,-0.4419,-0.4438,-0.4466,-0.447,-0.4426,-0.4426,-0.4426,-0.4446,0,-0.509,-0.5044,-0.5029,-0.4943,-0.4902,-0.4867,-0.4789,-0.4757,-0.4713,-0.4659,-0.4608,-0.4536,-0.4467,-0.445,-0.4405,-0.439,-0.4381,-0.4347,-0.4313,-0.4347,-0.4352,-0.4354,-0.4313,-0.4311,-0.431,-0.4309,0,0,-0.5098,-0.5029,-0.4955,-0.4915,-0.4876,-0.4802,-0.4772,-0.4724,-0.463,-0.4606,-0.4586,-0.4472,-0.4413,-0.4359,-0.4363,-0.4333,-0.4324,-0.4314,-0.4331,-0.4334,-0.4336,-0.4343,-0.4345,-0.4307,-0.4306,-0.4306,-0.4305,0,-0.5053,-0.4996,-0.4966,-0.4914,-0.4835,-0.4778,-0.4772,-0.4679,-0.4642,-0.4589,-0.4527,-0.4486,-0.4394,-0.4342,-0.4304,-0.4319,-0.4274,-0.4303,-0.4339,-0.4321,-0.4325,-0.4329,-0.4337,-0.434,-0.4302,-0.4303,-0.4303,0,-0.5023,-0.4955,-0.4931,-0.4837,-0.4783,-0.4739,-0.4685,-0.4639,-0.4606,-0.4523,-0.4471,-0.442,-0.4342,-0.4299,-0.4276,-0.4257,-0.4233,-0.4224,-0.423,-0.4226,-0.4204,-0.421,-0.4215,-0.4151,-0.4151,-0.415,0,0,-0.4995,-0.4949,-0.4851,-0.4821,-0.4792,-0.4707,-0.4674,-0.4625,-0.4557,-0.453,-0.4463,-0.4399,-0.4345,-0.431,-0.4255,-0.4218,-0.4196,-0.4209,-0.4216,-0.4222,-0.4222,-0.4202,-0.4207,-0.415,-0.415,-0.415,0,0,-0.498,-0.4865,-0.4832,-0.4787,-0.4725,-0.4625,-0.4609,-0.4566,-0.4507,-0.4502,-0.4416,-0.4395,-0.4353,-0.4304,-0.4304,-0.4241,-0.4209,-0.4207,-0.4274,-0.4282,-0.4289,-0.4302,-0.4236,0,0,0,0,0,-0.4893,-0.488,-0.4851,-0.4831,-0.4709,-0.4641,-0.4625,-0.4554,-0.4534,-0.4524,-0.4461,-0.4414,-0.4287,-0.4285,-0.4267,-0.4267,-0.4141,-0.4142,-0.4144,-0.4222,-0.4231,-0.4239,0,0,0,0,0,0,-0.4884,-0.4861,-0.4851,-0.4752,-0.4723,-0.4641,-0.4591,-0.4572,-0.4534,-0.4526,-0.4428,-0.4411,-0.4348,-0.429,-0.4274,-0.4276,-0.4241,-0.4141,-0.4143,-0.4144,-0.4225,-0.4233,-0.4239,0,0,0,0,0,-0.4877,-0.4858,-0.4681,-0.4751,-0.4727,-0.463,-0.4591,-0.4574,-0.4543,-0.4445,-0.4426,-0.4494,-0.435,-0.4332,-0.428,-0.4285,-0.4252,-0.4246,-0.4142,-0.4143,-0.4144,-0.4229,0,0,0,0,0,0,-0.4872,-0.4842,-0.4675,-0.4665,-0.475,-0.4633,-0.4612,-0.4577,-0.4463,-0.4445,-0.4507,-0.4502,-0.4351,-0.4337,-0.4323,-0.4292,-0.426,-0.4255,-0.4251,-0.4143,-0.4144,-0.4145,0,0,0,0,0,0,-0.4852,-0.4834,-0.4669,-0.4672,-0.4661,-0.4637,-0.4618,-0.4562,-0.4463,-0.4531,-0.4524,-0.4506,-0.4371,-0.4341,-0.433,-0.4245,-0.4267,-0.4261,-0.4258,-0.4255,-0.4144,-0.4144,0,0,0,0,0,0,-0.4843,-0.4828,-0.4674,-0.4666,-0.4657,-0.4538,-0.4586,-0.4464,-0.4467,-0.4537,-0.4465,-0.4464,-0.4376,-0.4364,-0.4334,-0.4255,-0.4248,-0.4267,-0.4263,-0.426,-0.4258,0,0,0,0,0,0,0,-0.4836,-0.4955,-0.4735,-0.4661,-0.4653,-0.4571,-0.4569,-0.4566,-0.4467,-0.4466,-0.4465,-0.4465,-0.4298,-0.4292,-0.4286,-0.4263,0,0,-0.4267,-0.4264,0,0,0,0,0,0,0,0,-0.496,-0.4956,-0.4734,-0.4732,-0.473,-0.4571,-0.4569,-0.4566,-0.4467,-0.4466,-0.4465,-0.4465,-0.4296,-0.4291,-0.4286,0,0,0,0,0,0,0,0,0,0,0,0,0,0,0,-0.4734,-0.4732,0,-0.4571,-0.4569,-0.4567,-0.4467,-0.4466,-0.4466,-0.4465,-0.4295,-0.4291,-0.4287,0,0,0,0,0,0,0,0,0,0,0,0,0,0,0,0,0,0,0,0,0,0,0,0,0,0,0,0,0,0,0,0,0,0,0,0,0,0,0,0,0,0,0,0,0,0,0,0,0,0,0,0,0,0,0,0,0,0,0,0,0,0,0,0,0,0,0,0,0]}],[{"header":{"parameterUnit":"kt","parameterCategory":2,"dx":1,"dy":1,"la1":30.253999710083008,"la2":30.299108505249023,"lo1":-89.0895004272461,"lo2":-89.04439544677734,"nx":28,"ny":28,"refTime":"2022-10-27T21:00:00:Z","depth":0,"parameterNumber":2,"parameterNumberName":"V-component_of_WINDS"},"data":[2.178,2.1714,2.1702,2.1621,2.1597,2.1537,2.1512,2.1478,2.1448,2.1374,2.1329,2.1309,2.1272,2.1213,2.1162,2.1153,2.113,2.1116,2.1107,2.1189,2.1199,2.1209,2.1223,2.1112,2.1112,2.1022,2.1021,2.102,2.1837,2.1813,2.1768,2.1716,2.1676,2.1683,2.1642,2.1606,2.1553,2.1516,2.1472,2.1405,2.135,2.1318,2.1262,2.1227,2.1225,2.1212,2.1212,2.1205,2.1294,2.1309,2.1214,2.1214,2.1214,2.1215,2.1215,2.1215,2.1939,2.1901,2.1863,2.1813,2.1784,2.1748,2.1709,2.1686,2.164,2.1583,2.1578,2.1517,2.1475,2.1402,2.1374,2.1324,2.1335,2.1316,2.131,2.1304,2.1298,2.1422,2.1314,2.1314,2.1315,2.1315,2.1315,0,2.2008,2.2001,2.1958,2.191,2.1874,2.1835,2.1798,2.1773,2.1753,2.1716,2.166,2.1625,2.1556,2.15,2.1445,2.142,2.1419,2.142,2.1405,2.1404,2.1409,2.14,2.1541,2.1421,2.1422,2.1423,2.1423,2.1424,2.2105,2.2064,2.2019,2.199,2.1967,2.192,2.1889,2.1876,2.1843,2.1793,2.1759,2.1704,2.1659,2.157,2.1541,2.1488,2.1486,2.1442,2.1478,2.148,2.1479,2.148,2.1474,2.1433,2.1432,2.1431,2.143,0,2.216,2.2143,2.2074,2.2035,2.2023,2.1979,2.1943,2.1904,2.1887,2.183,2.1815,2.1786,2.1731,2.171,2.1642,2.1632,2.1551,2.1554,2.1565,2.1562,2.1516,2.1519,2.138,2.1359,2.148,2.1479,2.1478,0,2.2233,2.218,2.2156,2.2117,2.2056,2.2044,2.1983,2.1962,2.1928,2.1883,2.1883,2.1839,2.182,2.1773,2.1758,2.169,2.1678,2.1665,2.166,2.1662,2.1663,2.1639,2.1642,2.1659,2.166,2.166,2.1661,0,2.2317,2.2244,2.2182,2.2161,2.2113,2.2084,2.2062,2.2025,2.1994,2.1952,2.1931,2.1882,2.1854,2.1814,2.1795,2.182,2.1713,2.1744,2.1698,2.1698,2.1672,2.1673,2.156,2.1662,2.1662,2.1662,2.1662,0,2.2373,2.2333,2.2248,2.2207,2.2187,2.2147,2.2098,2.2059,2.2019,2.2008,2.1974,2.197,2.1913,2.1944,2.1862,2.19,2.1871,2.1854,2.1851,2.184,2.1874,2.1807,2.1706,2.1691,2.1835,2.1836,2.1838,0,2.2471,2.2381,2.2371,2.2289,2.2244,2.2246,2.2201,2.2167,2.2148,2.2105,2.2084,2.2035,2.2055,2.2036,2.1999,2.1974,2.1925,2.1981,2.1911,2.1909,2.1917,2.1825,2.1813,2.1731,2.1856,2.1854,2.1853,0,2.2545,2.249,2.2476,2.2451,2.2407,2.237,2.2319,2.2269,2.224,2.2204,2.2157,2.209,2.21,2.207,2.2061,2.2024,2.1958,2.204,2.2038,2.2021,2.1865,2.1854,2.184,2.196,2.1957,2.1955,2.1867,0,2.2624,2.2578,2.2543,2.2492,2.2461,2.2411,2.2391,2.236,2.2356,2.2338,2.2271,2.2237,2.2184,2.2166,2.2161,2.2084,2.2092,2.2104,2.2129,2.2071,2.2041,2.2029,2.2176,2.2176,2.2177,2.2177,0,0,2.2719,2.2654,2.2645,2.2596,2.2569,2.2572,2.2519,2.2493,2.2439,2.2419,2.2434,2.2334,2.2305,2.2225,2.2206,2.2186,2.2169,2.219,2.21,2.2091,2.2083,2.2052,2.204,2.2178,2.2178,2.2179,2.2179,0,2.2744,2.2721,2.2671,2.2644,2.2604,2.2588,2.2576,2.2536,2.2522,2.2459,2.2459,2.2417,2.2339,2.2307,2.228,2.2201,2.2201,2.2187,2.215,2.2106,2.2097,2.2089,2.2056,2.2045,2.218,2.218,2.218,0,2.281,2.2782,2.2757,2.2699,2.2672,2.2627,2.265,2.2602,2.2568,2.2571,2.2507,2.2485,2.2442,2.2372,2.234,2.2352,2.2231,2.2267,2.2263,2.2258,2.2214,2.2203,2.2194,2.2322,2.2322,2.2323,0,0,2.2833,2.2792,2.2757,2.2703,2.2686,2.2662,2.2637,2.263,2.2593,2.2579,2.255,2.2513,2.2467,2.2436,2.2392,2.2319,2.2306,2.2286,2.2279,2.2274,2.2265,2.222,2.221,2.2325,2.2325,2.2325,0,0,2.2843,2.2802,2.2804,2.2739,2.2706,2.2666,2.2632,2.2634,2.2593,2.2596,2.258,2.2569,2.2503,2.2481,2.2513,2.24,2.2426,2.2418,2.2416,2.2407,2.24,2.2405,2.2529,0,0,0,0,0,2.2858,2.2807,2.281,2.2797,2.2723,2.2665,2.2655,2.2642,2.2661,2.2634,2.261,2.2614,2.2495,2.2523,2.2508,2.2471,2.2353,2.2348,2.2343,2.2324,2.2315,2.2307,0,0,0,0,0,0,2.2853,2.2836,2.2811,2.277,2.2754,2.2667,2.2695,2.269,2.2663,2.2665,2.2619,2.2613,2.2599,2.2529,2.2516,2.2481,2.2534,2.2351,2.2347,2.2343,2.2321,2.2313,2.2307,0,0,0,0,0,2.2848,2.2835,2.2721,2.2771,2.2756,2.2727,2.2697,2.2693,2.2672,2.2635,2.263,2.2664,2.2598,2.2586,2.2521,2.2488,2.2543,2.2538,2.2348,2.2345,2.2342,2.2317,0,0,0,0,0,0,2.2845,2.283,2.2717,2.2712,2.279,2.2731,2.2722,2.2695,2.2643,2.2637,2.268,2.2682,2.2597,2.2588,2.2579,2.2491,2.255,2.2545,2.2542,2.2346,2.2343,2.2341,0,0,0,0,0,0,2.2837,2.2825,2.2715,2.2739,2.2737,2.2735,2.2727,2.267,2.2643,2.2691,2.2691,2.2682,2.261,2.2589,2.2582,2.2494,2.2556,2.2551,2.2548,2.2546,2.2344,2.2342,0,0,0,0,0,0,2.2832,2.2822,2.274,2.2739,2.2737,2.2679,2.2685,2.2609,2.2667,2.2693,2.2671,2.2673,2.2611,2.2603,2.2584,2.2499,2.2495,2.2556,2.2552,2.255,2.2549,0,0,0,0,0,0,0,2.2828,2.2897,2.2748,2.2738,2.2736,2.2666,2.2664,2.2663,2.2667,2.2669,2.2671,2.2672,2.2583,2.2578,2.2572,2.2503,0,0,2.2556,2.2554,0,0,0,0,0,0,0,0,2.29,2.2898,2.2747,2.2746,2.2745,2.2665,2.2664,2.2663,2.2667,2.2669,2.267,2.2672,2.2581,2.2577,2.2573,0,0,0,0,0,0,0,0,0,0,0,0,0,0,0,2.2747,2.2746,0,2.2665,2.2664,2.2663,2.2668,2.2669,2.267,2.2671,2.258,2.2577,2.2573,0,0,0,0,0,0,0,0,0,0,0,0,0,0,0,0,0,0,0,0,0,0,0,0,0,0,0,0,0,0,0,0,0,0,0,0,0,0,0,0,0,0,0,0,0,0,0,0,0,0,0,0,0,0,0,0,0,0,0,0,0,0,0,0,0,0,0,0,0]}]]]